Location: Avully
(45.9633°N, 6.0228°E)
Time: 03:47:32
(UTC+00:00)

Genesis I - Pass Details

Date: 23 May 2024
Orbit: 432 x 466 km, 64.5° (Epoch: 21 June)

Event Time Altitude Azimuth Distance (km) Brightness Sun altitude
Exits shadow 02:07:03 31° 211° (SSW) 812 3.6 -14.8°
Maximum altitude 02:08:37 84° 128° (SE) 457 2.8 -14.6°
Drops below altitude 10° 02:12:10 10° 38° (NE) 1,596 7.1 -14.2°
Sets 02:14:18 0° 38° (NE) 2,482 8.7 -14.0°
